STARLINK-1267, 45384

Orbit data source: Space-Track

STARLINK-1267, 45384 is a payload satellite owned by SpaceX/Seattle (US) in LEO that was launched on Wed, 18 Mar 2020 UTC via an FALCON 9 launch vehicle from the Air Force Eastern Test Range (AFETR). Payloads include a variety of satellites, spacecraft, and rockets equipped with specific instruments for various scientific and technological missions. These include communications satellites like Starlink; space stations such as the ISS; scientific satellites like the Hubble; Earth observation satellites from companies like Planet Labs, Umbra, and HawkEye 360; GPS; miniature CubeSats for education and research; and military/defense satellites.

Loading next visibility...
STARLINK-1267 details
Identifier
45384, 2020-019AA
Orbit
LEO
Last TLE update8 hours ago
Origin
Flag of USSpaceX/Seattle (US)
ManufacturerSpaceX/Seattle
MissionOperational Commercial Communications
Bus & MotorSTARLINK, Unknown motor
Mass260 kg wet, ~248 kg dry
Launch date (UTC)
2020-03-18 (5 years ago)
Launch vehicle
FALCON 9
Launch site
Air Force Eastern Test Range (AFETR)
Object type
Payload
Rocket body
Debris
Shape & HBRBox + 1 Pan, 8.86 m
Radar Cross Section13.562 m², Large (>1 m²)

Expand to show TLE details & history

TLE from 8 hours ago
0 STARLINK-1267
1 45384U 20019AA  24361.11510226  .00023040  00000-0  15592-2 0  9993
2 45384  53.0550 316.1147 0001208  87.9243 272.1884 15.06433893263893
Epoch: 2024-12-26T02:45Z
Definitive object data (Epoch: 2024-12-26T02:45:44.835Z)
Latitude-0.00004°
Longitude179.57873°
Altitude547.955 km
Speed7.589 km/s
True Right ascension21h 04m 27s
True Declination0° 00' 00"
Sunlit
Object was in daylight at TLE epoch
Visualization TLE readout
Latitude-26.15556°
Longitude156.56693°
Altitude555.183 km
Speed7.584 km/s
Apparent Right ascension20h 35m 15s
Apparent Declination-33° 52' 05"
Sunlit
Object is in daylight
Visualization observer readout
Local Sidereal Time09:55:47
Azimuth75.71° E
Elevation-72.846°
Doppler factor1
Orbital elements
Apogee altitude548.215 km
Perigee altitude546.542 km
Semi-major axis6,925.515 km
Eccentricity0.0001208
Inclination53.055°
RAAN316.1147°
Arg. of periapsis87.9243°
True anomaly272.17457°
Mean anomaly272.1884°
Eccentric anomaly272.18148°
Mean motion3.76587 °/min
BSTAR0.0015592
Orbital period95.6 mins
Loading maneuver chart data...
Loading historical data...
Loading historical data...
Loading historical data...
Loading historical data...
Loading historical data...
Loading historical data...
Loading historical data...

STARLINK-1267 Visibility forecast

Observer location: undefined°, undefined

Span
Click to sort rows by Start time (UTC) header in descending order
Start Az.
Max El. time (UTC)
Max El. Az.
Max El.
End time (UTC)
End Az.
7 mins2024-12-26 23:37:35.431Z215.099° SW2024-12-26 23:40:35.431Z172.724° S39.496°2024-12-26 23:44:35.431Z57.706° ENE
5 mins2024-12-27 01:18:35.431Z288.67° WNW2024-12-27 01:20:35.431Z327.536° NNW23.369°2024-12-27 01:23:35.431Z25.466° NE
7 mins2024-12-27 06:19:35.431Z318.787° NNW2024-12-27 06:22:35.431Z37.381° NE41.27°2024-12-27 06:26:35.431Z118.056° SE
|